Showing default

JAY-D2, 62665

Orbit data source: Space-Track

JAY-D2, 62665 is a Canadian payload satellite in SSO that was launched on Tue, 14 Jan 2025 UTC via an FALCON 9 launch vehicle from the Air Force Western Test Range (AFWTR). Payload-class satellites include a variety of spacecraft equipped with specific instruments for various scientific and technological missions. These include communications satellites like Starlink; space stations such as the ISS; scientific satellites like the Hubble; Earth observation satellites from companies like Planet Labs, Umbra, and HawkEye 360; GPS; miniature CubeSats for education and research; and military/defense satellites.

Loading next visibility...
Identifier
62665, 2025-009BJ
Orbit
SSO
Country
Flag of CACA
Related business
Manufacturer
UTIAS-SFL
Mission
Operational Commercial Imaging
Bus & Motor
DEFIANT, Unknown motor
Mass
~35 kg wet, ~35 kg dry
Launch date (UTC)
2025-01-14 (1 year ago)
Launch vehicle
FALCON 9
Launch site
Air Force Western Test Range (AFWTR)
Object type
Payload
Rocket body
Debris
Shape & HBR
Box + 2 Pan, 0.4 m
Radar Cross Section
0.165 m², Medium (>0.1 m² and < 1m²)

Expand to show TLE details & history
Last TLE update: 10 hours ago

TLE from 10 hours ago
0 JAY-D2
1 62665U 25009BJ  26126.50634395  .00003837  00000-0  17064-3 0  9995
2 62665  97.3888 205.7107 0005640 111.7948 248.3889 15.22076743 72398
Epoch: 2026-05-06T12:09Z
TLE epoch observation values (Epoch: 2026-05-06T12:09:08.117Z)
Latitude
Longitude
159.06102°
Altitude
504.102 km
Speed
7.611 km/s
True Right ascension
13h 42m 50s
True Declination
0° 00' 00"
Sunlit
Object was in full shadow at epoch
Visualization orbit readout
Latitude
Unknown
Longitude
Unknown
Altitude
Unknown
Speed
Unknown
Apparent Right ascension
Unknown
Apparent Declination
Unknown
Sunlit
N/A
Visualization observer readout
Local Sidereal Time
06:04:29
Azimuth
Unknown
Elevation
Unknown
Doppler factor
Unknown
Orbital elements
Apogee altitude
500.417 km
Perigee altitude
492.662 km
Semi-major axis
6,874.677 km
Eccentricity
0.00056
Inclination
97.3888°
RAAN
205.7107°
Arg. of periapsis
111.7948°
True anomaly
248.32883°
Mean anomaly
248.3889°
Eccentric anomaly
248.35886°
Mean motion
3.80772 °/min
Orbital period
94.54 mins
BSTAR
0.00017064
Loading maneuver chart data...
Computing Atmospheric mass density...
Loading historical data...
Loading historical data...
Loading historical data...
Loading historical data...
Loading historical data...
Loading historical data...
Loading historical data...

Documentation

Showing up to 5 results
|